[[{"header":{"parameterUnit":"m.s-1","parameterCategory":1,"la1":30.2991,"la2":30.254,"lo1":-89.0895,"lo2":-89.0444,"dy":0.0017,"dx":0.0017,"nx":28,"ny":28,"refTime":"2024-04-06T03:00:00:Z","depth":0,"parameterNumber":2,"parameterNumberName":"U-component_of_WINDS"},"data":[0,0,0,0,0,0,0,0,0,0,0,0,0,0,0,0,0,0,0,0,0,0,0,0,0,0,0,0,0,0,0,0,0,0,0,0,0,0,0,0,0,0,0,0,0,0,0,0,0,0,0,0,0,0,0,0,0,0,2.834,2.8341,0,2.8385,2.8385,2.8386,2.8406,2.8406,2.8405,2.8405,2.845,2.8452,2.8453,0,0,0,0,0,0,0,0,0,0,0,0,0,2.8274,2.8275,2.834,2.8341,2.8341,2.8384,2.8385,2.8386,2.8406,2.8406,2.8405,2.8405,2.845,2.8451,2.8453,0,0,0,0,0,0,0,0,0,0,0,0,0,2.8309,2.8276,2.834,2.8356,2.8358,2.8384,2.8385,2.8386,2.8406,2.8406,2.8405,2.8405,2.8449,2.8451,2.8453,2.8466,0,0,2.8459,2.846,0,0,0,0,0,0,0,0,2.8307,2.8311,2.8353,2.8355,2.8357,2.8389,2.8378,2.8413,2.8406,2.8388,2.8405,2.8405,2.843,2.8434,2.8442,2.8468,2.847,2.8459,2.846,2.8461,2.8461,0,0,0,0,0,0,0,2.8305,2.831,2.8358,2.8354,2.8356,2.8362,2.8367,2.8385,2.8409,2.8389,2.8391,2.8396,2.8431,2.844,2.8443,2.8471,2.8459,2.8461,2.8462,2.8462,2.8514,2.8514,0,0,0,0,0,0,2.8299,2.8307,2.8356,2.8359,2.8332,2.8363,2.8369,2.8379,2.8409,2.8413,2.8396,2.8397,2.8437,2.8441,2.8445,2.8464,2.8461,2.8463,2.8464,2.8513,2.8514,2.8514,0,0,0,0,0,0,2.8298,2.8304,2.8354,2.8334,2.8341,2.8365,2.8376,2.838,2.8389,2.8414,2.8418,2.84,2.8437,2.8442,2.8462,2.8466,2.8463,2.8465,2.8513,2.8513,2.8514,2.8501,0,0,0,0,0,0,2.8296,2.8303,2.8307,2.8334,2.8342,2.837,2.8376,2.8381,2.8392,2.8394,2.8419,2.8423,2.8437,2.8459,2.8463,2.8468,2.8467,2.8513,2.8513,2.8514,2.8501,2.8501,2.8501,0,0,0,0,0,2.8293,2.8301,2.8307,2.8313,2.8348,2.837,2.8374,2.8391,2.8393,2.8398,2.8414,2.8422,2.8465,2.846,2.8466,2.8472,2.8512,2.8513,2.8514,2.8501,2.8501,2.8501,0,0,0,0,0,0,2.8273,2.8305,2.8312,2.8328,2.8346,2.8373,2.838,2.8389,2.8407,2.8407,2.8427,2.8433,2.8451,2.8463,2.8458,2.8488,2.849,2.8491,2.8478,2.8478,2.8478,2.8475,2.8468,0,0,0,0,0,2.8271,2.8286,2.8313,2.8325,2.8334,2.8355,2.8365,2.8377,2.8396,2.8404,2.8421,2.844,2.8458,2.8469,2.8486,2.8504,2.8511,2.8511,2.851,2.851,2.8511,2.8524,2.8525,2.8516,2.8516,2.8516,0,0,2.8266,2.8285,2.8293,2.8321,2.8336,2.8353,2.8361,2.8377,2.839,2.8406,2.8426,2.844,2.8462,2.8481,2.849,2.8492,2.8516,2.8511,2.851,2.8512,2.8525,2.8526,2.8526,2.8516,2.8516,2.8516,0,0,2.8265,2.828,2.8293,2.8309,2.8333,2.8348,2.8351,2.8377,2.8387,2.8408,2.8421,2.8437,2.8466,2.8483,2.8495,2.8504,2.8513,2.8509,2.8508,2.852,2.8521,2.8522,2.8527,2.8528,2.851,2.851,2.851,0,2.8255,2.828,2.8298,2.8314,2.8327,2.8345,2.8359,2.8373,2.8401,2.841,2.8412,2.8452,2.8468,2.8492,2.8495,2.8504,2.8509,2.8506,2.8519,2.852,2.8521,2.8526,2.8528,2.851,2.851,2.851,2.851,0,2.8268,2.8285,2.8292,2.8321,2.8335,2.8349,2.8371,2.8384,2.8395,2.841,2.8432,2.8453,2.8476,2.8483,2.8493,2.851,2.851,2.8516,2.8518,2.8521,2.8527,2.8528,2.8509,2.8509,2.8509,2.851,0,0,2.8253,2.8294,2.8296,2.8311,2.834,2.8353,2.8371,2.8394,2.8405,2.8425,2.844,2.8467,2.8473,2.8487,2.85,2.851,2.8519,2.8515,2.8516,2.8516,2.8541,2.8537,2.8539,2.8526,2.8526,2.8527,2.854,0,2.8256,2.8287,2.8306,2.833,2.8347,2.8366,2.8381,2.8401,2.8417,2.8434,2.8452,2.8471,2.8476,2.8485,2.8497,2.8516,2.8525,2.8515,2.8542,2.8542,2.8535,2.8542,2.8537,2.8548,2.8542,2.8542,2.8542,0,2.8264,2.8285,2.831,2.8341,2.8349,2.8362,2.8387,2.8403,2.8428,2.8438,2.8456,2.847,2.849,2.8492,2.8521,2.8514,2.8526,2.8538,2.8538,2.8541,2.8542,2.8545,2.8552,2.8554,2.8545,2.8545,2.8545,0,2.8252,2.8287,2.8307,2.8319,2.8354,2.8363,2.8379,2.8403,2.8417,2.8439,2.8449,2.8473,2.8486,2.8505,2.8526,2.8525,2.8554,2.8557,2.8564,2.8564,2.8569,2.8568,2.8578,2.8576,2.8576,2.8576,2.8576,0,2.8254,2.8269,2.8303,2.8315,2.8334,2.8357,2.8375,2.8392,2.8414,2.8431,2.8449,2.8464,2.8491,2.851,2.8527,2.855,2.8555,2.8565,2.8569,2.8564,2.8563,2.8572,2.8572,2.8577,2.8577,2.8577,2.8576,0,2.8243,2.8266,2.829,2.8323,2.8332,2.8344,2.8372,2.8386,2.8404,2.8426,2.8432,2.846,2.8485,2.8508,2.854,2.8551,2.8574,2.8579,2.8566,2.8569,2.8575,2.8575,2.8591,2.8595,2.8591,2.8591,2.8591,0,2.8243,2.8256,2.8291,2.8304,2.8319,2.834,2.8355,2.8379,2.8394,2.8425,2.8436,2.8462,2.8483,2.8522,2.8546,2.8571,2.8577,2.8582,2.8581,2.8576,2.8579,2.8578,2.858,2.8581,2.8581,2.8581,2.8581,0,2.8241,2.8252,2.8274,2.83,2.8318,2.834,2.8362,2.8372,2.84,2.8417,2.8443,2.846,2.8494,2.852,2.8549,2.8566,2.8579,2.8581,2.8585,2.8579,2.8571,2.8576,2.8566,2.858,2.858,2.858,2.858,2.858,2.8236,2.8249,2.8276,2.83,2.832,2.8341,2.8357,2.8378,2.84,2.843,2.8443,2.847,2.8497,2.8537,2.8554,2.8576,2.8579,2.8583,2.8585,2.8585,2.8585,2.8568,2.8582,2.8582,2.8582,2.8582,2.8582,0,2.8235,2.8255,2.8277,2.8308,2.8328,2.8339,2.8366,2.8381,2.8404,2.8429,2.8451,2.8482,2.8509,2.8536,2.8564,2.8577,2.8584,2.8583,2.8583,2.8587,2.858,2.8575,2.8578,2.8578,2.8578,2.8578,2.8578,2.8578,2.8237,2.8261,2.8276,2.831,2.833,2.8356,2.8371,2.8391,2.8411,2.8445,2.8468,2.8486,2.8512,2.8543,2.8569,2.8576,2.8586,2.8585,2.8594,2.8587,2.8587,2.8587,2.8582,2.8586,2.8586,2.8599,2.8599,2.8599]},{"header":{"parameterUnit":"m.s-1","parameterCategory":1,"la1":30.2991,"la2":30.254,"lo1":-89.0895,"lo2":-89.0444,"dy":0.0017,"dx":0.0017,"nx":28,"ny":28,"refTime":"2024-04-06T03:00:00:Z","depth":0,"parameterNumber":3,"parameterNumberName":"V-component_of_WINDS"},"data":[0,0,0,0,0,0,0,0,0,0,0,0,0,0,0,0,0,0,0,0,0,0,0,0,0,0,0,0,0,0,0,0,0,0,0,0,0,0,0,0,0,0,0,0,0,0,0,0,0,0,0,0,0,0,0,0,0,0,1.0973,1.0974,0,1.1125,1.1127,1.1129,1.1053,1.1049,1.1045,1.1041,1.12,1.1207,1.1215,0,0,0,0,0,0,0,0,0,0,0,0,0,1.0614,1.0621,1.0972,1.0974,1.0976,1.1125,1.1127,1.1129,1.1054,1.1049,1.1044,1.1039,1.1197,1.1206,1.1216,0,0,0,0,0,0,0,0,0,0,0,0,0,1.0768,1.0623,1.0972,1.0956,1.0957,1.1125,1.1127,1.113,1.1055,1.1049,1.1043,1.1037,1.1194,1.1205,1.1217,1.141,0,0,1.1254,1.1259,0,0,0,0,0,0,0,0,1.076,1.0782,1.0957,1.0958,1.0958,1.1064,1.1059,1.1224,1.1056,1.1018,1.1041,1.1034,1.1159,1.1174,1.1216,1.1418,1.1424,1.1255,1.1262,1.1267,1.127,0,0,0,0,0,0,0,1.0749,1.0775,1.1033,1.0959,1.096,1.0941,1.0957,1.109,1.112,1.102,1.1015,1.1034,1.1159,1.1204,1.1219,1.1427,1.1254,1.1265,1.1272,1.1277,1.1788,1.1794,0,0,0,0,0,0,1.0739,1.0766,1.1028,1.1037,1.0842,1.0953,1.097,1.1036,1.1118,1.1125,1.1039,1.103,1.1187,1.1205,1.1224,1.1451,1.1267,1.1278,1.1285,1.1781,1.1789,1.1796,0,0,0,0,0,0,1.0732,1.0763,1.1022,1.0901,1.0932,1.0965,1.104,1.1042,1.1088,1.1133,1.1138,1.108,1.1183,1.1207,1.1363,1.1455,1.1283,1.1294,1.1774,1.1784,1.1793,1.1909,0,0,0,0,0,0,1.0722,1.0761,1.0835,1.0903,1.0939,1.1159,1.1046,1.105,1.1108,1.1098,1.1173,1.1179,1.118,1.1345,1.1375,1.1469,1.1303,1.1766,1.1778,1.179,1.1897,1.1921,1.1942,0,0,0,0,0,1.0709,1.0864,1.084,1.0872,1.1032,1.1165,1.1185,1.1183,1.1116,1.119,1.1218,1.1177,1.1441,1.1362,1.1394,1.1493,1.176,1.1775,1.1789,1.1887,1.1916,1.1941,0,0,0,0,0,0,1.0809,1.0873,1.0846,1.1028,1.1091,1.1152,1.1246,1.1215,1.13,1.1287,1.128,1.1298,1.1458,1.1491,1.1403,1.1681,1.159,1.1611,1.1653,1.1682,1.1704,1.1692,1.1313,0,0,0,0,0,1.0851,1.0953,1.1004,1.1159,1.1192,1.1213,1.1271,1.1263,1.1329,1.1355,1.1395,1.1461,1.1557,1.1622,1.1714,1.1901,1.1914,1.1985,1.2007,1.2026,1.2044,1.214,1.217,1.1844,1.1844,1.1843,0,0,1.0941,1.0989,1.1054,1.118,1.1228,1.1332,1.1237,1.1353,1.1429,1.1373,1.1521,1.1552,1.1625,1.1795,1.1873,1.1828,1.2137,1.2044,1.2059,1.2067,1.2158,1.2189,1.2216,1.1854,1.1852,1.185,0,0,1.1157,1.1205,1.1337,1.1386,1.1459,1.1472,1.1503,1.1568,1.1586,1.1734,1.1692,1.1783,1.1952,1.2003,1.2052,1.2282,1.2245,1.2312,1.243,1.2524,1.2549,1.2572,1.265,1.2678,1.2331,1.2331,1.2331,0,1.126,1.1416,1.1409,1.1526,1.1581,1.1533,1.1664,1.1713,1.1813,1.1851,1.18,1.2007,1.2053,1.2232,1.2287,1.233,1.2363,1.2303,1.2546,1.2569,1.259,1.2664,1.2694,1.2338,1.2338,1.2337,1.2336,0,1.1536,1.1644,1.1742,1.1836,1.1903,1.2027,1.2037,1.2105,1.209,1.2107,1.2256,1.2308,1.2407,1.245,1.2439,1.2627,1.2596,1.2546,1.2454,1.2628,1.2697,1.2726,1.2349,1.2346,1.2344,1.2342,0,0,1.1821,1.1907,1.1942,1.1982,1.2058,1.2141,1.2261,1.2357,1.2413,1.2483,1.2581,1.2723,1.2675,1.273,1.2723,1.2806,1.2978,1.2745,1.2746,1.2783,1.3183,1.3218,1.3251,1.2955,1.296,1.2965,1.3175,0,1.2039,1.2249,1.2244,1.2438,1.2536,1.2489,1.2593,1.265,1.2669,1.2753,1.2774,1.2872,1.2804,1.2836,1.2916,1.2941,1.3058,1.2926,1.3044,1.3048,1.3024,1.3288,1.3327,1.3523,1.3203,1.3208,1.3211,0,1.2323,1.2398,1.2602,1.2657,1.2698,1.2792,1.2876,1.2959,1.302,1.3027,1.3086,1.3065,1.3184,1.309,1.3252,1.3162,1.321,1.3229,1.3236,1.3245,1.3139,1.3301,1.3586,1.3614,1.3255,1.3251,1.3248,0,1.2504,1.2658,1.2798,1.2834,1.2904,1.297,1.3002,1.3058,1.3114,1.3188,1.3223,1.3311,1.3358,1.3425,1.3426,1.3358,1.3589,1.3496,1.3596,1.3596,1.3645,1.3642,1.3939,1.3682,1.3681,1.3681,1.368,0,1.2747,1.2873,1.288,1.2966,1.3103,1.3096,1.3232,1.3258,1.3306,1.3395,1.3362,1.3445,1.3443,1.3528,1.353,1.3661,1.3684,1.3691,1.369,1.3693,1.3691,1.3722,1.3707,1.3689,1.3687,1.3685,1.3684,0,1.2974,1.2984,1.3133,1.3185,1.3201,1.3299,1.3343,1.3424,1.3438,1.355,1.3576,1.3598,1.3695,1.3703,1.3817,1.3818,1.3975,1.3961,1.3954,1.395,1.4048,1.4037,1.4374,1.4415,1.4134,1.4137,1.4139,0,1.3126,1.3221,1.3282,1.3338,1.3373,1.3465,1.352,1.3515,1.3574,1.3648,1.3719,1.3813,1.3887,1.4044,1.4069,1.4154,1.4139,1.4251,1.4152,1.415,1.4136,1.4129,1.4136,1.427,1.4273,1.4275,1.4277,0,1.3395,1.3394,1.3475,1.3557,1.3624,1.3689,1.375,1.3797,1.3799,1.3867,1.3964,1.4022,1.4135,1.4227,1.4309,1.4341,1.4309,1.4308,1.4335,1.4338,1.4328,1.433,1.4003,1.43,1.4298,1.4296,1.4295,1.4294,1.3586,1.3666,1.372,1.381,1.3854,1.391,1.3986,1.4008,1.409,1.418,1.4173,1.428,1.4334,1.4441,1.4478,1.4561,1.4523,1.4563,1.4572,1.4582,1.4589,1.4317,1.4576,1.4576,1.4575,1.4574,1.4574,0,1.3849,1.388,1.3963,1.4047,1.4117,1.408,1.4143,1.4204,1.4298,1.4352,1.4424,1.4534,1.4621,1.4652,1.4736,1.4796,1.4783,1.4818,1.4812,1.4818,1.4621,1.4587,1.4827,1.4827,1.4827,1.4826,1.4826,1.4826,1.3994,1.4125,1.413,1.4281,1.4312,1.4415,1.4454,1.4504,1.4545,1.4669,1.4741,1.476,1.4803,1.4889,1.4967,1.4973,1.5004,1.5045,1.5045,1.4859,1.4833,1.4809,1.4777,1.5052,1.5053,1.5235,1.5236,1.5238]}]]